User: anonymous   Login
Location: Niagara
(43.2500°N, 79.0670°W)
Time: 07:02:00
(UTC-04:00)
Language:

Vanguard 2 Rocket - Orbit

View from above orbital plane
View from above orbital plane
View from above satellite
View from above satellite

Ground track
Ground track

The orbit data is extracted from the following two-line orbital elements,

1    12U 59001B   18202.46257891 +.00000036 +00000-0 +22074-4 0  9991
2    12 032.8992 269.4138 1667024 011.7314 351.7637 11.44249475200122
Epoch (UTC): 21 July 2018 11:06:06
Eccentricity: 0.1667024
inclination: 32.8992°
perigee height: 554 km
apogee height: 3327 km
right ascension of ascending node: 269.4138°
argument of perigee: 11.7314°
revolutions per day: 11.44249475
mean anomaly at epoch: 351.7637°
orbit number at epoch: 20012

The dashed part of the orbit path shows where the satellite is in the earth's shadow,  

DLR